Home > Time Zones > World Clock > Weather > Cuba > Havana > Past weeks

Flag for Cuba Weather past 2 weeks in Havana, Cuba

Now
68 °F

Clear.


Feels Like: 68 °F
Forecast: 68 / 83 °F
Wind: 3 mph from Southeast

Location: Aeropuerto Jose Marti - Rancho-Boyeros - Habana

Current Time: Dec 22, 2014 at 8:39:08 AM

Latest Report: Dec 22, 2014 at 7:55 AM


Visibility: 5 mi

Pressure: 30.01 "Hg

Humidity: 94%

Dew point: 66 °F

Location of HavanaLocation

Historic Weather in Havana — Graph

°F

Havana temperature yesterday

Maximum temperature yesterday: 82 °F (at 11:55 AM)
Minimum temperature yesterday: 63 °F (at 3:55 AM)
Average temperature yesterday: 72 °F

Past Weeks' High & Low Weather Summary

 TemperatureHumidityPressure
High82 °F (Dec 21, 11:55 AM)94% (Dec 7, 7:55 AM)30.24 "Hg (Dec 7, 7:55 AM)
Low45 °F (Dec 11, 4:55 AM)41% (Dec 11, 1:55 PM)29.98 "Hg (Dec 19, 3:55 PM)
Average65 °F72%30.09 "Hg
* Reported Dec 7 6:55 AM — Dec 22 6:55 AM, Havana, Weather by CustomWeather, © 2014

Note: Actual official high and low records may vary slightly from our data, if they occured in-between our weather recording intervals... More about our weather records

Advertising

Havana weather history for previous 24 hours

 ConditionsComfort  
Time TempWeatherWind HumidityBarometerVisibility
6:55 AM
Dec 22
59 °FClear.1 mph94%30.01 "Hg5 mi
5:55 AM61 °FLight fog.2 mph88%30.01 "Hg3 mi
4:55 AM61 °FCool.1 mph94%30.01 "Hg3 mi
3:55 AM63 °FClear.No wind88%30.01 "Hg4 mi
2:55 AM63 °FClear.3 mph88%30.01 "Hg5 mi
1:55 AM64 °FClear.3 mph88%30.04 "Hg6 mi
12:55 AM64 °FClear.3 mph88%30.04 "Hg6 mi
11:55 PM
Dec 21
66 °FClear.2 mph88%30.04 "Hg6 mi
10:55 PM66 °FClear.2 mph88%30.04 "Hg6 mi
9:55 PM68 °FLight fog.1 mph88%N/A4 mi
8:55 PM70 °FClear.2 mph83%30.04 "Hg6 mi
7:55 PM70 °FClear.3 mph83%30.01 "Hg6 mi
6:55 PM72 °FClear.3 mph78%30.01 "Hg6 mi
5:55 PM75 °FClear.8 mph69%30.01 "Hg6 mi
4:55 PM81 °FPassing clouds.9 mph62%29.98 "HgN/A
3:55 PM81 °FPassing clouds.9 mph58%29.98 "HgN/A
2:55 PM82 °FPassing clouds.10 mph51%30.01 "HgN/A
1:55 PM82 °FPassing clouds.9 mph48%30.01 "HgN/A
12:55 PM82 °FPassing clouds.7 mph51%30.04 "HgN/A
11:55 AM82 °FPassing clouds.9 mph51%30.07 "HgN/A
10:55 AM81 °FClear.7 mph54%30.09 "HgN/A
9:55 AM79 °FClear.7 mph58%30.09 "HgN/A
8:55 AM73 °FClear.1 mph78%30.09 "HgN/A
Weather by CustomWeather, © 2014

See weather overviewHow to use our weather pages